Time,TemperatureF,DewpointF,PressureIn,WindDirection,WindDirectionDegrees,WindSpeedMPH,WindSpeedGustMPH,Humidity,HourlyPrecipIn,Conditions,Clouds,dailyrainin,SoftwareType,DateUTC
2013-01-12 00:04:00,34.0,33.2,29.17,SE,126,2.0,5.0,97,0.02,,---,0.00,VWS V13.01,2013-01-12 06:04:00,
2013-01-12 00:09:00,34.0,33.2,29.17,SE,141,4.0,5.0,97,0.02,,---,0.00,VWS V13.01,2013-01-12 06:09:00,
2013-01-12 00:14:00,34.1,33.3,29.17,SE,137,0.0,5.0,97,0.02,,---,0.00,VWS V13.01,2013-01-12 06:14:00,
2013-01-12 00:19:00,34.2,33.4,29.14,SE,145,3.0,9.0,97,0.01,,---,0.00,VWS V13.01,2013-01-12 06:19:00,
2013-01-12 00:24:00,34.3,33.5,29.14,SE,146,3.0,9.0,97,0.01,,---,0.00,VWS V13.01,2013-01-12 06:24:00,
2013-01-12 00:29:00,34.4,33.6,29.14,SSE,151,1.0,9.0,97,0.01,,---,0.00,VWS V13.01,2013-01-12 06:29:00,
2013-01-12 00:35:00,34.4,33.6,29.14,SSE,163,0.0,7.0,97,0.01,,---,0.00,VWS V13.01,2013-01-12 06:35:00,
2013-01-12 00:40:00,34.4,33.6,29.14,ESE,108,5.0,7.0,97,0.01,,---,0.00,VWS V13.01,2013-01-12 06:40:00,
2013-01-12 00:45:00,34.4,33.6,29.14,SSE,163,1.0,7.0,97,0.01,,---,0.00,VWS V13.01,2013-01-12 06:45:00,
2013-01-12 00:50:00,34.4,33.6,29.14,SSE,150,1.0,6.0,97,0.00,,---,0.00,VWS V13.01,2013-01-12 06:50:00,
2013-01-12 00:55:00,34.6,33.8,29.14,SSE,161,5.0,10.0,97,0.00,,---,0.00,VWS V13.01,2013-01-12 06:55:00,
2013-01-12 01:01:00,34.7,33.9,29.12,SE,144,1.0,10.0,97,0.00,,---,0.00,VWS V13.01,2013-01-12 07:01:00,
2013-01-12 01:06:00,34.8,34.0,29.12,South,176,3.0,9.0,97,0.00,,---,0.00,VWS V13.01,2013-01-12 07:06:00,
2013-01-12 01:11:00,35.0,34.2,29.12,SSE,163,2.0,9.0,97,0.00,,---,0.00,VWS V13.01,2013-01-12 07:11:00,
2013-01-12 01:16:00,35.0,34.2,29.12,SSE,154,5.0,9.0,97,0.00,,---,0.00,VWS V13.01,2013-01-12 07:16:00,
2013-01-12 01:21:00,35.0,34.2,29.12,SSE,157,4.0,6.0,97,0.00,,---,0.00,VWS V13.01,2013-01-12 07:21:00,
2013-01-12 01:26:00,35.0,34.2,29.12,SSE,162,2.0,7.0,97,0.00,,---,0.00,VWS V13.01,2013-01-12 07:26:00,
2013-01-12 01:32:00,35.1,34.3,29.11,SSE,158,3.0,3.0,97,0.00,,---,0.00,VWS V13.01,2013-01-12 07:32:00,
2013-01-12 01:37:00,35.2,34.4,29.11,South,174,1.0,5.0,97,0.00,,---,0.00,VWS V13.01,2013-01-12 07:37:00,
2013-01-12 01:42:00,35.2,34.4,29.11,SE,142,1.0,6.0,97,0.00,,---,0.00,VWS V13.01,2013-01-12 07:42:00,
2013-01-12 01:47:00,35.3,34.5,29.10,SSE,155,5.0,8.0,97,0.00,,---,0.00,VWS V13.01,2013-01-12 07:47:00,
2013-01-12 01:52:00,35.6,34.8,29.10,South,169,9.0,14.0,97,0.00,,---,0.00,VWS V13.01,2013-01-12 07:52:00,
2013-01-12 01:58:00,35.7,34.9,29.10,SSE,168,6.0,14.0,97,0.00,,---,0.00,VWS V13.01,2013-01-12 07:58:00,
2013-01-12 02:03:00,35.7,34.9,29.09,South,172,7.0,13.0,97,0.00,,---,0.00,VWS V13.01,2013-01-12 08:03:00,
2013-01-12 02:08:00,35.8,35.0,29.09,SSE,150,4.0,13.0,97,0.00,,---,0.00,VWS V13.01,2013-01-12 08:08:00,
2013-01-12 02:13:00,35.9,35.1,29.09,SSE,149,10.0,13.0,97,0.00,,---,0.00,VWS V13.01,2013-01-12 08:13:00,
2013-01-12 02:19:00,35.9,35.1,29.08,South,169,2.0,9.0,97,0.00,,---,0.00,VWS V13.01,2013-01-12 08:19:00,
2013-01-12 02:24:00,35.9,35.1,29.08,South,181,6.0,10.0,97,0.00,,---,0.00,VWS V13.01,2013-01-12 08:24:00,
2013-01-12 02:29:00,35.9,35.1,29.08,SSE,157,2.0,10.0,97,0.00,,---,0.00,VWS V13.01,2013-01-12 08:29:00,
2013-01-12 02:34:00,36.0,35.2,29.09,South,171,4.0,11.0,97,0.00,,---,0.00,VWS V13.01,2013-01-12 08:34:00,
2013-01-12 02:40:00,36.0,35.2,29.09,SSW,202,3.0,12.0,97,0.00,,---,0.00,VWS V13.01,2013-01-12 08:40:00,
2013-01-12 02:45:00,35.9,35.1,29.09,SSE,160,4.0,12.0,97,0.00,,---,0.00,VWS V13.01,2013-01-12 08:45:00,
2013-01-12 02:50:00,36.0,35.2,29.08,South,177,2.0,11.0,97,0.00,,---,0.00,VWS V13.01,2013-01-12 08:50:00,
2013-01-12 02:55:00,36.0,35.2,29.08,SE,137,3.0,13.0,97,0.00,,---,0.00,VWS V13.01,2013-01-12 08:55:00,
2013-01-12 03:01:00,36.0,35.2,29.07,SSE,155,2.0,13.0,97,0.00,,---,0.00,VWS V13.01,2013-01-12 09:01:00,
2013-01-12 03:06:00,36.0,35.2,29.07,SSE,166,3.0,7.0,97,0.00,,---,0.00,VWS V13.01,2013-01-12 09:06:00,
2013-01-12 03:11:00,36.0,35.2,29.07,SE,135,3.0,10.0,97,0.00,,---,0.00,VWS V13.01,2013-01-12 09:11:00,
2013-01-12 03:16:00,36.0,35.2,29.08,SSE,152,6.0,6.0,97,0.00,,---,0.00,VWS V13.01,2013-01-12 09:16:00,
2013-01-12 03:22:00,36.1,35.3,29.08,South,175,3.0,10.0,97,0.00,,---,0.00,VWS V13.01,2013-01-12 09:22:00,
2013-01-12 03:27:00,36.1,35.3,29.08,SSE,166,1.0,11.0,97,0.00,,---,0.00,VWS V13.01,2013-01-12 09:27:00,
2013-01-12 03:32:00,36.2,35.4,29.06,SSE,150,4.0,6.0,97,0.00,,---,0.00,VWS V13.01,2013-01-12 09:32:00,
2013-01-12 03:37:00,36.2,35.4,29.06,SSE,168,4.0,10.0,97,0.00,,---,0.00,VWS V13.01,2013-01-12 09:37:00,
2013-01-12 03:43:00,36.1,35.3,29.06,SSE,164,2.0,10.0,97,0.00,,---,0.00,VWS V13.01,2013-01-12 09:43:00,
2013-01-12 03:48:00,36.2,35.4,29.06,SSE,158,1.0,6.0,97,0.00,,---,0.00,VWS V13.01,2013-01-12 09:48:00,
2013-01-12 03:53:00,36.2,35.4,29.06,South,172,1.0,6.0,97,0.00,,---,0.00,VWS V13.01,2013-01-12 09:53:00,
2013-01-12 03:58:00,36.2,35.4,29.06,SSE,155,1.0,9.0,97,0.00,,---,0.00,VWS V13.01,2013-01-12 09:58:00,
2013-01-12 04:04:00,36.2,35.4,29.04,South,176,1.0,5.0,97,0.00,,---,0.00,VWS V13.01,2013-01-12 10:04:00,
2013-01-12 04:09:00,36.1,35.3,29.04,South,189,4.0,9.0,97,0.00,,---,0.00,VWS V13.01,2013-01-12 10:09:00,
2013-01-12 04:14:00,36.2,35.4,29.04,South,171,2.0,10.0,97,0.00,,---,0.00,VWS V13.01,2013-01-12 10:14:00,
2013-01-12 04:20:00,36.2,35.4,29.03,SSE,166,0.0,6.0,97,0.00,,---,0.00,VWS V13.01,2013-01-12 10:20:00,
2013-01-12 04:25:00,36.1,35.3,29.03,SSE,167,3.0,6.0,97,0.00,,---,0.00,VWS V13.01,2013-01-12 10:25:00,
2013-01-12 04:30:00,36.2,35.4,29.03,SSE,159,0.0,6.0,97,0.00,,---,0.00,VWS V13.01,2013-01-12 10:30:00,
2013-01-12 04:35:00,36.2,35.4,29.02,SSW,198,4.0,10.0,97,0.00,,---,0.00,VWS V13.01,2013-01-12 10:35:00,
2013-01-12 04:41:00,36.1,35.3,29.02,South,178,1.0,10.0,97,0.01,,---,0.01,VWS V13.01,2013-01-12 10:41:00,
2013-01-12 04:46:00,36.1,35.3,29.02,SSE,162,3.0,10.0,97,0.01,,---,0.01,VWS V13.01,2013-01-12 10:46:00,
2013-01-12 04:51:00,36.2,35.4,29.02,South,184,0.0,10.0,97,0.01,,---,0.01,VWS V13.01,2013-01-12 10:51:00,
2013-01-12 04:56:00,36.1,35.3,29.02,South,190,4.0,10.0,97,0.01,,---,0.01,VWS V13.01,2013-01-12 10:56:00,
2013-01-12 05:02:00,36.1,35.3,29.02,SE,146,1.0,2.0,97,0.01,,---,0.01,VWS V13.01,2013-01-12 11:02:00,
2013-01-12 05:07:00,36.2,35.4,29.02,SSW,206,3.0,7.0,97,0.01,,---,0.01,VWS V13.01,2013-01-12 11:07:00,
2013-01-12 05:12:00,36.2,35.4,29.02,SW,230,0.0,11.0,97,0.01,,---,0.01,VWS V13.01,2013-01-12 11:12:00,
2013-01-12 05:18:00,36.1,35.3,29.02,SW,226,4.0,7.0,97,0.01,,---,0.01,VWS V13.01,2013-01-12 11:18:00,
2013-01-12 05:23:00,36.1,35.3,29.02,SW,220,8.0,10.0,97,0.01,,---,0.01,VWS V13.01,2013-01-12 11:23:00,
2013-01-12 05:28:00,36.1,35.3,29.02,South,171,2.0,11.0,97,0.01,,---,0.01,VWS V13.01,2013-01-12 11:28:00,
2013-01-12 05:33:00,36.1,35.3,29.02,SSW,205,2.0,8.0,97,0.01,,---,0.01,VWS V13.01,2013-01-12 11:33:00,
2013-01-12 05:38:00,36.0,35.2,29.02,SSE,154,4.0,8.0,97,0.01,,---,0.01,VWS V13.01,2013-01-12 11:38:00,
2013-01-12 05:44:00,35.9,35.1,29.02,WSW,240,1.0,9.0,97,0.01,,---,0.01,VWS V13.01,2013-01-12 11:44:00,
2013-01-12 05:49:00,35.9,35.1,29.02,South,178,4.0,7.0,97,0.00,,---,0.01,VWS V13.01,2013-01-12 11:49:00,
2013-01-12 05:54:00,35.9,35.1,29.02,South,188,1.0,12.0,97,0.00,,---,0.01,VWS V13.01,2013-01-12 11:54:00,
2013-01-12 05:59:00,35.9,35.1,29.02,SSW,203,2.0,12.0,97,0.00,,---,0.01,VWS V13.01,2013-01-12 11:59:00,
2013-01-12 06:05:00,35.9,35.1,29.03,SW,233,4.0,10.0,97,0.00,,---,0.01,VWS V13.01,2013-01-12 12:05:00,
2013-01-12 06:10:00,35.9,35.1,29.03,SW,221,3.0,12.0,97,0.00,,---,0.01,VWS V13.01,2013-01-12 12:10:00,
2013-01-12 06:15:00,35.8,35.0,29.03,SW,219,2.0,12.0,97,0.00,,---,0.01,VWS V13.01,2013-01-12 12:15:00,
2013-01-12 06:20:00,35.8,35.0,29.04,SSW,200,2.0,14.0,97,0.00,,---,0.01,VWS V13.01,2013-01-12 12:20:00,
2013-01-12 06:25:00,35.8,35.0,29.04,SW,230,6.0,14.0,97,0.00,,---,0.01,VWS V13.01,2013-01-12 12:25:00,
2013-01-12 06:31:00,35.7,34.9,29.04,SSW,193,1.0,14.0,97,0.00,,---,0.01,VWS V13.01,2013-01-12 12:31:00,
2013-01-12 06:36:00,35.7,34.9,29.04,SSW,211,2.0,11.0,97,0.00,,---,0.01,VWS V13.01,2013-01-12 12:36:00,
2013-01-12 06:41:00,35.6,34.8,29.04,SSW,213,0.0,11.0,97,0.00,,---,0.01,VWS V13.01,2013-01-12 12:41:00,
2013-01-12 06:46:00,35.6,34.8,29.05,SSW,200,2.0,11.0,97,0.00,,---,0.01,VWS V13.01,2013-01-12 12:46:00,
2013-01-12 06:51:00,35.5,34.7,29.05,SW,222,2.0,9.0,97,0.00,,---,0.01,VWS V13.01,2013-01-12 12:51:00,
2013-01-12 06:57:00,35.3,34.5,29.05,WSW,252,8.0,13.0,97,0.00,,---,0.01,VWS V13.01,2013-01-12 12:57:00,
2013-01-12 07:02:00,35.2,34.4,29.06,SSW,213,3.0,13.0,97,0.01,,---,0.02,VWS V13.01,2013-01-12 13:02:00,
2013-01-12 07:07:00,35.2,34.2,29.06,SW,216,6.0,14.0,96,0.01,,---,0.02,VWS V13.01,2013-01-12 13:07:00,
2013-01-12 07:12:00,35.1,34.1,29.06,SW,224,11.0,14.0,96,0.01,,---,0.02,VWS V13.01,2013-01-12 13:12:00,
2013-01-12 07:17:00,34.8,33.8,29.07,West,259,2.0,14.0,96,0.01,,---,0.02,VWS V13.01,2013-01-12 13:17:00,
2013-01-12 07:23:00,34.4,33.4,29.07,SW,225,13.0,14.0,96,0.01,,---,0.02,VWS V13.01,2013-01-12 13:23:00,
2013-01-12 07:28:00,34.3,33.3,29.07,WSW,247,5.0,14.0,96,0.02,,---,0.03,VWS V13.01,2013-01-12 13:28:00,
2013-01-12 07:33:00,34.2,33.2,29.10,WSW,258,9.0,14.0,96,0.02,,---,0.03,VWS V13.01,2013-01-12 13:33:00,
2013-01-12 07:38:00,34.2,33.2,29.10,West,267,16.0,16.0,96,0.02,,---,0.03,VWS V13.01,2013-01-12 13:38:00,
2013-01-12 07:44:00,34.0,32.7,29.10,SSW,200,15.0,17.0,95,0.02,,---,0.03,VWS V13.01,2013-01-12 13:44:00,
2013-01-12 07:49:00,33.8,32.5,29.11,WSW,240,3.0,13.0,95,0.02,,---,0.03,VWS V13.01,2013-01-12 13:49:00,
2013-01-12 07:54:00,33.7,32.4,29.11,WSW,240,3.0,13.0,95,0.02,,---,0.03,VWS V13.01,2013-01-12 13:54:00,
2013-01-12 07:59:00,33.5,32.2,29.11,SW,226,5.0,15.0,95,0.02,,---,0.03,VWS V13.01,2013-01-12 13:59:00,
2013-01-12 08:04:00,33.4,32.1,29.13,WSW,249,10.0,12.0,95,0.01,,---,0.03,VWS V13.01,2013-01-12 14:04:00,
2013-01-12 08:10:00,32.9,31.6,29.13,SW,226,1.0,14.0,95,0.01,,---,0.03,VWS V13.01,2013-01-12 14:10:00,
2013-01-12 08:15:00,32.1,30.8,29.13,West,266,5.0,15.0,95,0.01,,---,0.03,VWS V13.01,2013-01-12 14:15:00,
2013-01-12 08:20:00,31.6,30.3,29.16,WSW,247,2.0,14.0,95,0.01,,---,0.03,VWS V13.01,2013-01-12 14:20:00,
2013-01-12 08:26:00,31.4,30.1,29.16,WSW,247,4.0,14.0,95,0.01,,---,0.03,VWS V13.01,2013-01-12 14:26:00,
2013-01-12 08:31:00,30.2,28.9,29.19,West,277,13.0,20.0,95,0.01,,---,0.03,VWS V13.01,2013-01-12 14:31:00,
2013-01-12 08:36:00,29.3,27.5,29.19,SW,219,4.0,17.0,93,0.00,,---,0.03,VWS V13.01,2013-01-12 14:36:00,
2013-01-12 08:41:00,28.4,26.6,29.19,WNW,290,12.0,23.0,93,0.00,,---,0.03,VWS V13.01,2013-01-12 14:41:00,
2013-01-12 08:46:00,27.8,26.0,29.24,WSW,243,4.0,10.0,93,0.00,,---,0.03,VWS V13.01,2013-01-12 14:46:00,
2013-01-12 08:52:00,27.4,25.6,29.24,West,280,5.0,22.0,93,0.00,,---,0.03,VWS V13.01,2013-01-12 14:52:00,
2013-01-12 08:57:00,27.2,25.5,29.24,SW,225,3.0,22.0,93,0.00,,---,0.03,VWS V13.01,2013-01-12 14:57:00,
2013-01-12 09:02:00,26.5,24.8,29.28,SW,229,11.0,11.0,93,0.00,,---,0.03,VWS V13.01,2013-01-12 15:02:00,
2013-01-12 09:07:00,25.9,24.2,29.28,WNW,300,15.0,17.0,93,0.00,,---,0.03,VWS V13.01,2013-01-12 15:07:00,
2013-01-12 09:13:00,25.4,23.4,29.28,West,266,2.0,17.0,92,0.00,,---,0.03,VWS V13.01,2013-01-12 15:13:00,
2013-01-12 09:18:00,24.5,22.2,29.32,WNW,287,9.0,23.0,91,0.00,,---,0.03,VWS V13.01,2013-01-12 15:18:00,
2013-01-12 09:23:00,23.7,21.5,29.32,WNW,289,11.0,23.0,91,0.00,,---,0.03,VWS V13.01,2013-01-12 15:23:00,
2013-01-12 09:29:00,22.9,20.7,29.32,WNW,301,7.0,23.0,91,0.00,,---,0.03,VWS V13.01,2013-01-12 15:29:00,
2013-01-12 09:34:00,22.3,19.8,29.35,West,273,4.0,20.0,90,0.00,,---,0.03,VWS V13.01,2013-01-12 15:34:00,
2013-01-12 09:39:00,21.8,19.3,29.35,West,263,6.0,20.0,90,0.00,,---,0.03,VWS V13.01,2013-01-12 15:39:00,
2013-01-12 09:44:00,21.6,19.4,29.35,SW,219,5.0,20.0,91,0.00,,---,0.03,VWS V13.01,2013-01-12 15:44:00,
2013-01-12 09:50:00,21.5,19.3,29.38,West,278,14.0,14.0,91,0.00,,---,0.03,VWS V13.01,2013-01-12 15:50:00,
2013-01-12 09:55:00,20.8,18.3,29.38,SW,231,10.0,15.0,90,0.00,,---,0.03,VWS V13.01,2013-01-12 15:55:00,
2013-01-12 10:00:00,20.4,17.9,29.38,West,265,10.0,15.0,90,0.00,,---,0.03,VWS V13.01,2013-01-12 16:00:00,
2013-01-12 10:05:00,20.1,17.6,29.41,WSW,244,10.0,15.0,90,0.00,,---,0.03,VWS V13.01,2013-01-12 16:05:00,
2013-01-12 10:10:00,19.7,17.2,29.41,West,280,10.0,20.0,90,0.00,,---,0.03,VWS V13.01,2013-01-12 16:10:00,
2013-01-12 10:16:00,19.1,16.7,29.42,WNW,293,7.0,20.0,90,0.00,,---,0.03,VWS V13.01,2013-01-12 16:16:00,
2013-01-12 10:21:00,18.7,16.0,29.42,SW,217,6.0,18.0,89,0.00,,---,0.03,VWS V13.01,2013-01-12 16:21:00,
2013-01-12 10:26:00,18.3,15.4,29.42,West,261,6.0,18.0,88,0.00,,---,0.03,VWS V13.01,2013-01-12 16:26:00,
2013-01-12 10:32:00,17.9,14.9,29.43,West,268,11.0,14.0,88,0.00,,---,0.03,VWS V13.01,2013-01-12 16:32:00,
2013-01-12 10:37:00,17.6,14.7,29.43,WSW,244,13.0,17.0,88,0.00,,---,0.03,VWS V13.01,2013-01-12 16:37:00,
2013-01-12 10:42:00,17.5,14.6,29.43,SW,218,9.0,20.0,88,0.00,,---,0.03,VWS V13.01,2013-01-12 16:42:00,
2013-01-12 10:47:00,17.2,14.3,29.47,WNW,283,9.0,9.0,88,0.00,,---,0.03,VWS V13.01,2013-01-12 16:47:00,
2013-01-12 10:53:00,17.2,14.0,29.47,WNW,298,3.0,16.0,87,0.00,,---,0.03,VWS V13.01,2013-01-12 16:53:00,
2013-01-12 10:58:00,16.9,13.4,29.47,NW,306,9.0,21.0,86,0.00,,---,0.03,VWS V13.01,2013-01-12 16:58:00,
2013-01-12 11:03:00,16.4,12.7,29.48,West,259,11.0,18.0,85,0.00,,---,0.03,VWS V13.01,2013-01-12 17:03:00,
2013-01-12 11:08:00,16.5,13.1,29.48,West,277,16.0,21.0,86,0.00,,---,0.03,VWS V13.01,2013-01-12 17:08:00,
2013-01-12 11:14:00,16.0,12.0,29.48,West,263,4.0,21.0,84,0.00,,---,0.03,VWS V13.01,2013-01-12 17:14:00,
2013-01-12 11:19:00,16.0,12.3,29.50,West,277,16.0,20.0,85,0.00,,---,0.03,VWS V13.01,2013-01-12 17:19:00,
2013-01-12 11:24:00,16.1,12.1,29.50,WSW,249,7.0,20.0,84,0.00,,---,0.03,VWS V13.01,2013-01-12 17:24:00,
2013-01-12 11:29:00,16.2,12.2,29.50,West,271,9.0,20.0,84,0.00,,---,0.03,VWS V13.01,2013-01-12 17:29:00,
2013-01-12 11:35:00,15.9,11.7,29.51,West,268,5.0,18.0,83,0.00,,---,0.03,VWS V13.01,2013-01-12 17:35:00,
2013-01-12 11:40:00,15.8,11.8,29.51,West,278,10.0,18.0,84,0.00,,---,0.03,VWS V13.01,2013-01-12 17:40:00,
2013-01-12 11:45:00,15.4,11.2,29.51,West,273,9.0,18.0,83,0.00,,---,0.03,VWS V13.01,2013-01-12 17:45:00,
2013-01-12 11:50:00,15.1,11.1,29.53,West,263,4.0,26.0,84,0.00,,---,0.03,VWS V13.01,2013-01-12 17:50:00,
2013-01-12 11:56:00,15.1,11.4,29.53,West,261,4.0,26.0,85,0.00,,---,0.03,VWS V13.01,2013-01-12 17:56:00,
2013-01-12 12:01:00,14.8,10.3,29.55,SW,229,13.0,26.0,82,0.00,,---,0.03,VWS V13.01,2013-01-12 18:01:00,
2013-01-12 12:06:00,14.7,10.5,29.55,WSW,244,4.0,17.0,83,0.00,,---,0.03,VWS V13.01,2013-01-12 18:06:00,
2013-01-12 12:11:00,14.6,10.7,29.55,WSW,244,2.0,17.0,84,0.00,,---,0.03,VWS V13.01,2013-01-12 18:11:00,
2013-01-12 12:17:00,14.6,10.7,29.54,WSW,252,5.0,7.0,84,0.00,,---,0.03,VWS V13.01,2013-01-12 18:17:00,
2013-01-12 12:22:00,14.3,10.1,29.54,WNW,300,9.0,16.0,83,0.00,,---,0.03,VWS V13.01,2013-01-12 18:22:00,
2013-01-12 12:27:00,14.3,10.4,29.54,West,267,10.0,17.0,84,0.00,,---,0.03,VWS V13.01,2013-01-12 18:27:00,
2013-01-12 12:32:00,14.1,9.9,29.58,WSW,256,2.0,19.0,83,0.00,,---,0.03,VWS V13.01,2013-01-12 18:32:00,
2013-01-12 12:38:00,14.0,9.8,29.58,WNW,288,6.0,19.0,83,0.00,,---,0.03,VWS V13.01,2013-01-12 18:38:00,
2013-01-12 12:43:00,13.9,10.0,29.58,WNW,297,9.0,19.0,84,0.00,,---,0.03,VWS V13.01,2013-01-12 18:43:00,
2013-01-12 12:48:00,13.8,9.9,29.60,West,273,5.0,17.0,84,0.00,,---,0.03,VWS V13.01,2013-01-12 18:48:00,
2013-01-12 12:53:00,13.6,9.4,29.60,West,269,3.0,19.0,83,0.00,,---,0.03,VWS V13.01,2013-01-12 18:53:00,
2013-01-12 12:59:00,13.6,9.7,29.60,North,355,15.0,19.0,84,0.00,,---,0.03,VWS V13.01,2013-01-12 18:59:00,
2013-01-12 13:04:00,13.4,9.2,29.60,WNW,288,4.0,15.0,83,0.00,,---,0.03,VWS V13.01,2013-01-12 19:04:00,
2013-01-12 13:09:00,13.2,8.8,29.60,West,263,10.0,19.0,82,0.00,,---,0.03,VWS V13.01,2013-01-12 19:09:00,
2013-01-12 13:14:00,13.2,8.8,29.60,West,273,10.0,19.0,82,0.00,,---,0.03,VWS V13.01,2013-01-12 19:14:00,
2013-01-12 13:20:00,13.2,8.8,29.62,WNW,293,13.0,20.0,82,0.00,,---,0.03,VWS V13.01,2013-01-12 19:20:00,
2013-01-12 13:25:00,13.1,8.4,29.62,West,273,9.0,20.0,81,0.00,,---,0.03,VWS V13.01,2013-01-12 19:25:00,
2013-01-12 13:30:00,13.1,8.9,29.62,West,272,7.0,20.0,83,0.00,,---,0.03,VWS V13.01,2013-01-12 19:30:00,
2013-01-12 13:35:00,13.1,8.9,29.64,West,266,5.0,13.0,83,0.00,,---,0.03,VWS V13.01,2013-01-12 19:35:00,
2013-01-12 13:41:00,12.7,8.0,29.64,West,281,9.0,15.0,81,0.00,,---,0.03,VWS V13.01,2013-01-12 19:41:00,
2013-01-12 13:46:00,12.5,8.1,29.66,West,261,10.0,15.0,82,0.00,,---,0.03,VWS V13.01,2013-01-12 19:46:00,
2013-01-12 13:51:00,12.2,7.8,29.66,WSW,248,5.0,15.0,82,0.00,,---,0.03,VWS V13.01,2013-01-12 19:51:00,
2013-01-12 13:56:00,12.0,7.6,29.66,West,269,3.0,16.0,82,0.00,,---,0.03,VWS V13.01,2013-01-12 19:56:00,
2013-01-12 14:01:00,12.0,7.3,29.68,WNW,297,15.0,15.0,81,0.00,,---,0.03,VWS V13.01,2013-01-12 20:01:00,
2013-01-12 14:07:00,11.6,6.1,29.68,West,264,8.0,19.0,78,0.00,,---,0.03,VWS V13.01,2013-01-12 20:07:00,
2013-01-12 14:12:00,11.4,6.2,29.68,NNW,329,13.0,20.0,79,0.00,,---,0.03,VWS V13.01,2013-01-12 20:12:00,
2013-01-12 14:17:00,11.4,6.2,29.71,West,281,14.0,14.0,79,0.00,,---,0.03,VWS V13.01,2013-01-12 20:17:00,
2013-01-12 14:22:00,11.6,6.6,29.71,WSW,256,4.0,14.0,80,0.00,,---,0.03,VWS V13.01,2013-01-12 20:22:00,
2013-01-12 14:28:00,11.6,6.6,29.71,West,269,12.0,15.0,80,0.00,,---,0.03,VWS V13.01,2013-01-12 20:28:00,
2013-01-12 14:33:00,11.3,6.6,29.72,West,269,10.0,17.0,81,0.00,,---,0.03,VWS V13.01,2013-01-12 20:33:00,
2013-01-12 14:38:00,11.0,6.3,29.72,West,261,3.0,17.0,81,0.00,,---,0.03,VWS V13.01,2013-01-12 20:38:00,
2013-01-12 14:43:00,11.0,6.6,29.72,WNW,286,7.0,17.0,82,0.00,,---,0.03,VWS V13.01,2013-01-12 20:43:00,
2013-01-12 14:49:00,11.0,6.3,29.73,WNW,284,10.0,12.0,81,0.00,,---,0.03,VWS V13.01,2013-01-12 20:49:00,
2013-01-12 14:54:00,10.7,6.0,29.73,West,276,8.0,20.0,81,0.00,,---,0.03,VWS V13.01,2013-01-12 20:54:00,
2013-01-12 14:59:00,10.7,6.0,29.73,WNW,288,9.0,20.0,81,0.00,,---,0.03,VWS V13.01,2013-01-12 20:59:00,
2013-01-12 15:04:00,10.5,5.8,29.74,WNW,284,4.0,14.0,81,0.00,,---,0.03,VWS V13.01,2013-01-12 21:04:00,
2013-01-12 15:10:00,10.5,6.4,29.74,West,260,5.0,14.0,83,0.00,,---,0.03,VWS V13.01,2013-01-12 21:10:00,
2013-01-12 15:15:00,10.3,6.2,29.74,WNW,283,4.0,15.0,83,0.00,,---,0.03,VWS V13.01,2013-01-12 21:15:00,
2013-01-12 15:20:00,10.1,5.7,29.75,WNW,288,14.0,19.0,82,0.00,,---,0.03,VWS V13.01,2013-01-12 21:20:00,
2013-01-12 15:25:00,10.0,5.3,29.75,WNW,294,4.0,19.0,81,0.00,,---,0.03,VWS V13.01,2013-01-12 21:25:00,
2013-01-12 15:30:00,9.9,5.2,29.77,WSW,252,4.0,19.0,81,0.00,,---,0.03,VWS V13.01,2013-01-12 21:30:00,
2013-01-12 15:36:00,9.9,5.5,29.77,West,263,4.0,11.0,82,0.00,,---,0.03,VWS V13.01,2013-01-12 21:36:00,
2013-01-12 15:41:00,9.9,5.5,29.77,WSW,254,6.0,17.0,82,0.00,,---,0.03,VWS V13.01,2013-01-12 21:41:00,
2013-01-12 15:46:00,9.7,5.1,29.78,NW,312,3.0,17.0,81,0.00,,---,0.03,VWS V13.01,2013-01-12 21:46:00,
2013-01-12 15:51:00,9.6,4.9,29.78,WNW,290,7.0,15.0,81,0.00,,---,0.03,VWS V13.01,2013-01-12 21:51:00,
2013-01-12 15:56:00,9.5,5.1,29.78,West,275,9.0,16.0,82,0.00,,---,0.03,VWS V13.01,2013-01-12 21:56:00,
2013-01-12 16:02:00,9.4,5.0,29.81,West,281,3.0,4.0,82,0.00,,---,0.03,VWS V13.01,2013-01-12 22:02:00,
2013-01-12 16:07:00,9.3,4.7,29.81,West,276,3.0,13.0,81,0.00,,---,0.03,VWS V13.01,2013-01-12 22:07:00,
2013-01-12 16:12:00,9.2,4.6,29.81,West,271,4.0,14.0,81,0.00,,---,0.03,VWS V13.01,2013-01-12 22:12:00,
2013-01-12 16:18:00,9.0,4.9,29.81,WNW,294,2.0,13.0,83,0.00,,---,0.03,VWS V13.01,2013-01-12 22:18:00,
2013-01-12 16:23:00,8.8,5.0,29.81,WNW,295,9.0,15.0,84,0.00,,---,0.03,VWS V13.01,2013-01-12 22:23:00,
2013-01-12 16:28:00,8.7,4.9,29.81,WNW,284,7.0,15.0,84,0.00,,---,0.03,VWS V13.01,2013-01-12 22:28:00,
2013-01-12 16:33:00,8.6,4.8,29.82,WNW,288,4.0,10.0,84,0.00,,---,0.03,VWS V13.01,2013-01-12 22:33:00,
2013-01-12 16:38:00,8.5,4.7,29.82,West,261,6.0,14.0,84,0.00,,---,0.03,VWS V13.01,2013-01-12 22:38:00,
2013-01-12 16:43:00,8.4,4.6,29.82,WNW,291,4.0,14.0,84,0.00,,---,0.03,VWS V13.01,2013-01-12 22:43:00,
2013-01-12 16:49:00,8.4,4.6,29.83,NW,317,7.0,13.0,84,0.00,,---,0.03,VWS V13.01,2013-01-12 22:49:00,
2013-01-12 16:54:00,8.4,4.8,29.83,West,266,5.0,14.0,85,0.00,,---,0.03,VWS V13.01,2013-01-12 22:54:00,
2013-01-12 16:59:00,8.4,4.8,29.83,WNW,300,5.0,14.0,85,0.00,,---,0.03,VWS V13.01,2013-01-12 22:59:00,
2013-01-12 17:04:00,8.3,4.5,29.85,WNW,282,5.0,14.0,84,0.00,,---,0.03,VWS V13.01,2013-01-12 23:04:00,
2013-01-12 17:09:00,8.2,3.6,29.85,West,266,16.0,17.0,81,0.00,,---,0.03,VWS V13.01,2013-01-12 23:09:00,
2013-01-12 17:15:00,8.0,2.8,29.85,West,281,6.0,19.0,79,0.00,,---,0.03,VWS V13.01,2013-01-12 23:15:00,
2013-01-12 17:20:00,7.9,3.3,29.85,West,272,3.0,11.0,81,0.00,,---,0.03,VWS V13.01,2013-01-12 23:20:00,
2013-01-12 17:25:00,7.9,3.6,29.85,WNW,290,0.0,11.0,82,0.00,,---,0.03,VWS V13.01,2013-01-12 23:25:00,
2013-01-12 17:30:00,7.8,2.9,29.85,WNW,288,2.0,14.0,80,0.00,,---,0.03,VWS V13.01,2013-01-12 23:30:00,
2013-01-12 17:35:00,7.8,2.9,29.87,West,266,6.0,12.0,80,0.00,,---,0.03,VWS V13.01,2013-01-12 23:35:00,
2013-01-12 17:40:00,7.8,2.7,29.87,NW,323,12.0,15.0,79,0.00,,---,0.03,VWS V13.01,2013-01-12 23:40:00,
2013-01-12 17:45:00,7.7,2.6,29.87,NW,308,7.0,15.0,79,0.00,,---,0.03,VWS V13.01,2013-01-12 23:45:00,
2013-01-12 17:51:00,7.6,2.5,29.87,West,269,13.0,13.0,79,0.00,,---,0.03,VWS V13.01,2013-01-12 23:51:00,
2013-01-12 17:56:00,7.6,2.5,29.87,WNW,288,11.0,13.0,79,0.00,,---,0.03,VWS V13.01,2013-01-12 23:56:00,
2013-01-12 18:01:00,7.5,2.4,29.87,West,277,1.0,13.0,79,0.00,,---,0.03,VWS V13.01,2013-01-13 00:01:00,
2013-01-12 18:06:00,7.5,2.6,29.87,WNW,302,2.0,13.0,80,0.00,,---,0.03,VWS V13.01,2013-01-13 00:06:00,
2013-01-12 18:12:00,7.4,3.1,29.87,WNW,282,5.0,14.0,82,0.00,,---,0.03,VWS V13.01,2013-01-13 00:12:00,
2013-01-12 18:17:00,7.3,3.5,29.90,WNW,297,2.0,5.0,84,0.00,,---,0.03,VWS V13.01,2013-01-13 00:17:00,
2013-01-12 18:22:00,7.2,3.1,29.90,NW,322,3.0,14.0,83,0.00,,---,0.03,VWS V13.01,2013-01-13 00:22:00,
2013-01-12 18:27:00,7.1,3.0,29.90,WNW,300,10.0,14.0,83,0.00,,---,0.03,VWS V13.01,2013-01-13 00:27:00,
2013-01-12 18:32:00,7.1,3.0,29.92,West,281,9.0,13.0,83,0.00,,---,0.03,VWS V13.01,2013-01-13 00:32:00,
2013-01-12 18:37:00,7.1,3.3,29.92,WNW,300,4.0,13.0,84,0.00,,---,0.03,VWS V13.01,2013-01-13 00:37:00,
2013-01-12 18:43:00,7.2,3.7,29.92,NW,308,3.0,13.0,85,0.00,,---,0.03,VWS V13.01,2013-01-13 00:43:00,
2013-01-12 18:48:00,7.1,3.5,29.93,WNW,301,6.0,12.0,85,0.00,,---,0.03,VWS V13.01,2013-01-13 00:48:00,
2013-01-12 18:53:00,6.7,3.2,29.93,NW,323,4.0,14.0,85,0.00,,---,0.03,VWS V13.01,2013-01-13 00:53:00,
2013-01-12 18:58:00,6.5,3.0,29.93,NW,314,7.0,14.0,85,0.00,,---,0.03,VWS V13.01,2013-01-13 00:58:00,
2013-01-12 19:03:00,6.3,2.8,29.95,NW,311,4.0,7.0,85,0.00,,---,0.03,VWS V13.01,2013-01-13 01:03:00,
2013-01-12 19:08:00,6.3,2.8,29.95,NNW,333,1.0,9.0,85,0.00,,---,0.03,VWS V13.01,2013-01-13 01:08:00,
2013-01-12 19:13:00,6.3,2.8,29.95,NNW,338,5.0,10.0,85,0.00,,---,0.03,VWS V13.01,2013-01-13 01:13:00,
2013-01-12 19:19:00,6.1,2.3,29.96,NNW,331,8.0,9.0,84,0.00,,---,0.03,VWS V13.01,2013-01-13 01:19:00,
2013-01-12 19:24:00,6.0,2.2,29.96,NW,325,3.0,9.0,84,0.00,,---,0.03,VWS V13.01,2013-01-13 01:24:00,
2013-01-12 19:29:00,6.0,2.2,29.96,NW,313,5.0,13.0,84,0.00,,---,0.03,VWS V13.01,2013-01-13 01:29:00,
2013-01-12 19:34:00,6.0,2.2,29.97,WNW,295,0.0,5.0,84,0.00,,---,0.03,VWS V13.01,2013-01-13 01:34:00,
2013-01-12 19:39:00,5.9,1.9,29.97,NW,312,2.0,9.0,83,0.00,,---,0.03,VWS V13.01,2013-01-13 01:39:00,
2013-01-12 19:45:00,5.8,1.8,29.97,NNW,330,4.0,10.0,83,0.00,,---,0.03,VWS V13.01,2013-01-13 01:45:00,
2013-01-12 19:50:00,5.7,1.7,29.97,NW,323,2.0,14.0,83,0.00,,---,0.03,VWS V13.01,2013-01-13 01:50:00,
2013-01-12 19:55:00,5.6,1.6,29.97,NW,325,1.0,14.0,83,0.00,,---,0.03,VWS V13.01,2013-01-13 01:55:00,
2013-01-12 20:00:00,5.5,1.5,29.96,NNW,342,2.0,14.0,83,0.00,,---,0.03,VWS V13.01,2013-01-13 02:00:00,
2013-01-12 20:06:00,5.6,1.8,29.96,WNW,298,1.0,6.0,84,0.00,,---,0.03,VWS V13.01,2013-01-13 02:06:00,
2013-01-12 20:11:00,5.6,1.8,29.96,WNW,292,2.0,6.0,84,0.00,,---,0.03,VWS V13.01,2013-01-13 02:11:00,
2013-01-12 20:16:00,5.5,1.5,30.03,NNW,346,1.0,10.0,83,0.00,,---,0.03,VWS V13.01,2013-01-13 02:16:00,
2013-01-12 20:21:00,5.2,0.9,30.03,NNW,337,2.0,13.0,82,0.00,,---,0.03,VWS V13.01,2013-01-13 02:21:00,
2013-01-12 20:26:00,5.1,0.8,30.03,NNW,328,6.0,13.0,82,0.00,,---,0.03,VWS V13.01,2013-01-13 02:26:00,
2013-01-12 20:31:00,4.9,0.6,30.01,North,355,5.0,9.0,82,0.00,,---,0.03,VWS V13.01,2013-01-13 02:31:00,
2013-01-12 20:36:00,4.9,0.6,30.01,WNW,292,10.0,10.0,82,0.00,,---,0.03,VWS V13.01,2013-01-13 02:36:00,
2013-01-12 20:42:00,4.8,0.3,30.01,NNW,344,5.0,13.0,81,0.00,,---,0.03,VWS V13.01,2013-01-13 02:42:00,
2013-01-12 20:47:00,4.8,0.3,30.03,WNW,302,1.0,5.0,81,0.00,,---,0.03,VWS V13.01,2013-01-13 02:47:00,
2013-01-12 20:52:00,4.8,0.3,30.03,WNW,299,4.0,10.0,81,0.00,,---,0.03,VWS V13.01,2013-01-13 02:52:00,
2013-01-12 20:57:00,4.8,0.0,30.03,NNW,336,5.0,12.0,80,0.00,,---,0.03,VWS V13.01,2013-01-13 02:57:00,
2013-01-12 21:02:00,4.8,0.0,30.02,WNW,292,4.0,11.0,80,0.00,,---,0.03,VWS V13.01,2013-01-13 03:02:00,
2013-01-12 21:08:00,4.8,0.0,30.02,North,5,9.0,11.0,80,0.00,,---,0.03,VWS V13.01,2013-01-13 03:08:00,
2013-01-12 21:13:00,4.9,0.4,30.02,NW,320,9.0,11.0,81,0.00,,---,0.03,VWS V13.01,2013-01-13 03:13:00,
2013-01-12 21:18:00,4.9,0.6,30.10,WNW,282,4.0,6.0,82,0.00,,---,0.03,VWS V13.01,2013-01-13 03:18:00,
2013-01-12 21:23:00,4.9,0.9,30.10,NW,320,1.0,7.0,83,0.00,,---,0.03,VWS V13.01,2013-01-13 03:23:00,
2013-01-12 21:28:00,4.9,0.9,30.10,NW,320,0.0,7.0,83,0.00,,---,0.03,VWS V13.01,2013-01-13 03:28:00,
2013-01-12 21:34:00,5.0,1.0,30.11,WNW,296,5.0,5.0,83,0.00,,---,0.03,VWS V13.01,2013-01-13 03:34:00,
2013-01-12 21:39:00,5.0,1.0,30.11,West,273,5.0,10.0,83,0.00,,---,0.03,VWS V13.01,2013-01-13 03:39:00,
2013-01-12 21:44:00,4.9,0.9,30.11,West,279,5.0,10.0,83,0.00,,---,0.03,VWS V13.01,2013-01-13 03:44:00,
2013-01-12 21:50:00,4.9,0.9,30.12,WNW,294,1.0,9.0,83,0.00,,---,0.03,VWS V13.01,2013-01-13 03:50:00,
2013-01-12 21:55:00,4.9,0.9,30.12,WNW,289,4.0,9.0,83,0.00,,---,0.03,VWS V13.01,2013-01-13 03:55:00,
2013-01-12 22:00:00,4.9,0.9,30.13,WNW,288,2.0,9.0,83,0.00,,---,0.03,VWS V13.01,2013-01-13 04:00:00,
2013-01-12 22:05:00,4.9,0.9,30.13,WNW,283,4.0,6.0,83,0.00,,---,0.03,VWS V13.01,2013-01-13 04:05:00,
2013-01-12 22:11:00,4.9,0.9,30.13,West,270,2.0,6.0,83,0.00,,---,0.03,VWS V13.01,2013-01-13 04:11:00,
2013-01-12 22:16:00,4.9,0.9,30.14,NW,304,5.0,6.0,83,0.00,,---,0.03,VWS V13.01,2013-01-13 04:16:00,
2013-01-12 22:21:00,4.9,1.1,30.14,West,261,3.0,6.0,84,0.00,,---,0.03,VWS V13.01,2013-01-13 04:21:00,
2013-01-12 22:27:00,4.9,1.1,30.14,West,261,7.0,10.0,84,0.00,,---,0.03,VWS V13.01,2013-01-13 04:27:00,
2013-01-12 22:32:00,4.7,0.7,30.17,West,277,3.0,4.0,83,0.00,,---,0.03,VWS V13.01,2013-01-13 04:32:00,
2013-01-12 22:37:00,4.8,1.0,30.17,WNW,300,3.0,8.0,84,0.00,,---,0.03,VWS V13.01,2013-01-13 04:37:00,
2013-01-12 22:42:00,4.8,1.0,30.17,WNW,302,0.0,8.0,84,0.00,,---,0.03,VWS V13.01,2013-01-13 04:42:00,
2013-01-12 22:48:00,4.8,1.0,30.18,West,270,2.0,6.0,84,0.00,,---,0.03,VWS V13.01,2013-01-13 04:48:00,
2013-01-12 22:53:00,4.8,1.3,30.18,WNW,290,3.0,10.0,85,0.00,,---,0.03,VWS V13.01,2013-01-13 04:53:00,
2013-01-12 22:58:00,4.8,1.3,30.18,WNW,293,6.0,10.0,85,0.00,,---,0.03,VWS V13.01,2013-01-13 04:58:00,
2013-01-12 23:00:00,4.8,1.3,30.18,NW,315,2.0,10.0,85,0.00,,---,0.03,VWS V13.01,2013-01-13 05:00:00,
2013-01-12 23:03:00,4.9,1.4,30.17,WNW,300,1.0,5.0,85,0.00,,---,0.03,VWS V13.01,2013-01-13 05:03:00,
2013-01-12 23:04:00,4.9,1.4,30.17,NW,305,3.0,5.0,85,0.00,,---,0.03,VWS V13.01,2013-01-13 05:04:00,
2013-01-12 23:10:00,5.0,1.5,30.17,NW,313,2.0,5.0,85,0.00,,---,0.03,VWS V13.01,2013-01-13 05:10:00,
2013-01-12 23:15:00,4.9,1.4,30.17,NW,325,2.0,6.0,85,0.00,,---,0.03,VWS V13.01,2013-01-13 05:15:00,
2013-01-12 23:20:00,4.9,1.4,30.19,NW,319,1.0,6.0,85,0.00,,---,0.03,VWS V13.01,2013-01-13 05:20:00,
2013-01-12 23:25:00,4.8,1.0,30.19,NNW,343,2.0,11.0,84,0.00,,---,0.03,VWS V13.01,2013-01-13 05:25:00,
2013-01-12 23:31:00,4.8,1.0,30.18,NW,311,3.0,11.0,84,0.00,,---,0.03,VWS V13.01,2013-01-13 05:31:00,
2013-01-12 23:36:00,4.8,1.3,30.18,NW,307,2.0,10.0,85,0.00,,---,0.03,VWS V13.01,2013-01-13 05:36:00,
2013-01-12 23:41:00,4.7,0.9,30.18,NW,311,4.0,10.0,84,0.00,,---,0.03,VWS V13.01,2013-01-13 05:41:00,
2013-01-12 23:47:00,4.7,1.2,30.19,West,265,4.0,9.0,85,0.00,,---,0.03,VWS V13.01,2013-01-13 05:47:00,
2013-01-12 23:52:00,4.6,0.8,30.19,NNW,348,3.0,12.0,84,0.00,,---,0.03,VWS V13.01,2013-01-13 05:52:00,
2013-01-12 23:57:00,4.5,0.7,30.19,NNW,331,5.0,12.0,84,0.00,,---,0.03,VWS V13.01,2013-01-13 05:57:00,